Theta_e
340 347 349 349 348 347 345 344 343 342 342 342 345 344 343 341 339 339 339 338 337 335 334 338 339 340 340 341 341 339 338 337 336 335 334 335 334 333 333 332 335 330 332
343 347 347 349 348 346 344 342 342 343 341 344 344 342 341 340 339 338 336 336 334 334 333 334 338 339 338 340 339 337 335 333 332 332 333 333 332 333 333 331 334 329 329
343 346 348 348 348 345 343 341 339 340 340 342 342 340 340 338 336 335 335 336 334 333 333 336 335 335 338 339 339 336 334 331 330 329 332 330 330 331 330 330 330 331 330
344 346 347 345 347 344 342 340 340 339 339 339 339 341 339 337 336 333 333 333 333 334 334 334 334 334 338 340 338 334 332 330 328 330 328 327 327 329 329 329 329 329 329
344 346 346 343 345 343 341 339 339 337 337 339 341 341 338 337 335 335 333 332 331 332 332 332 332 333 335 340 336 333 330 328 326 330 326 327 328 327 328 326 326 327 326
343 345 342 344 344 342 340 339 339 337 336 338 339 338 339 338 335 335 333 332 331 331 330 330 331 332 333 336 335 332 330 328 328 326 325 324 326 325 325 324 325 325 325
343 345 345 343 344 342 340 338 338 337 335 334 335 338 341 339 336 335 333 332 330 329 329 329 331 330 331 333 335 333 330 327 326 325 324 324 326 323 325 323 323 322 323
342 345 344 337 339 341 341 341 339 339 337 337 337 337 340 339 337 335 334 332 329 330 329 329 328 328 329 329 332 331 329 327 324 325 324 326 324 323 322 322 321 321 323
341 343 344 343 338 334 337 337 338 338 336 337 338 338 341 339 339 337 337 334 332 332 331 330 327 327 328 327 329 329 328 324 325 326 323 325 323 323 322 320 320 321 320
338 342 343 342 340 339 338 331 333 334 335 335 335 333 332 335 334 334 331 333 333 333 332 331 329 327 327 326 324 326 326 324 326 325 326 325 324 322 324 321 320 321 321
334 336 342 341 340 339 338 333 329 330 332 331 331 328 327 333 333 331 328 331 334 335 334 332 330 329 328 325 323 323 325 327 326 325 325 323 325 324 323 323 322 321 321
333 334 337 340 340 339 336 336 334 333 335 335 334 333 332 332 332 329 325 324 327 328 333 333 331 330 327 326 325 322 325 326 326 325 325 323 325 326 326 326 325 323 322
336 336 335 336 339 340 339 337 336 335 334 335 335 334 332 331 332 331 330 330 330 324 332 331 331 330 328 328 326 324 325 325 324 324 324 322 325 327 327 328 328 326 325
334 336 337 337 335 337 339 338 338 336 335 334 334 334 332 331 330 330 329 330 330 330 329 330 329 329 330 327 326 325 325 325 325 325 324 320 323 326 328 328 328 330 327
333 335 337 338 335 334 335 339 338 337 336 335 334 334 332 331 330 329 328 328 329 329 328 328 327 327 328 327 326 325 324 326 326 325 326 317 319 324 327 329 328 328 331
332 333 336 338 338 336 334 335 337 337 337 337 336 335 333 332 331 329 328 327 327 328 328 327 327 326 326 326 325 324 324 324 324 325 326 325 319 321 324 328 330 329 329
327 330 332 335 337 338 336 335 335 336 334 335 336 336 335 333 331 330 329 328 327 328 327 327 326 326 325 325 325 325 325 324 324 324 326 326 325 318 321 325 328 330 329
323 324 328 331 333 336 337 338 337 336 334 333 333 337 336 334 333 331 330 329 329 328 327 325 325 324 324 324 324 325 325 324 323 323 325 326 326 325 322 322 325 327 329
320 320 323 328 331 333 336 337 338 337 334 333 332 334 336 335 333 332 331 330 330 329 327 326 324 324 323 324 324 324 325 324 324 322 322 324 325 325 326 323 320 322 327
319 319 321 324 328 331 333 335 336 335 335 333 332 332 335 335 334 333 332 331 331 329 328 327 324 325 324 324 323 322 324 325 324 324 323 324 324 325 325 325 326 321 319
317 317 318 320 324 328 330 330 332 329 329 330 331 332 333 334 334 333 332 331 330 328 328 327 326 324 323 324 320 320 322 324 324 324 324 324 325 325 324 325 326 326 325
313 314 316 317 320 324 328 330 331 332 333 333 332 331 331 332 332 332 331 331 330 327 327 327 324 322 322 324 316 316 312 319 320 322 323 323 324 324 324 323 323 324 325
309 311 313 315 318 323 328 329 329 330 331 330 331 332 332 331 331 331 331 331 330 328 327 327 327 323 319 322 321 316 308 309 317 317 319 321 321 321 323 323 323 323 324
306 309 313 316 319 322 326 327 327 326 325 328 329 331 331 332 332 332 330 330 329 329 326 326 327 324 322 318 316 317 319 318 310 311 313 316 318 319 322 322 322 322 322
304 306 308 311 313 320 326 327 327 325 327 328 328 327 329 330 330 330 330 329 327 326 326 326 324 322 322 319 318 316 314 315 316 312 309 314 316 319 319 321 321 320 320
301 302 304 305 306 306 307 308 312 317 321 319 321 322 324 326 327 327 327 327 327 326 325 324 325 323 321 320 320 319 317 313 312 312 310 312 312 318 321 323 322 322 321
Wind_Speed
7 10 10 13 13 11 10 8 9 9 9 8 9 12 12 13 11 11 10 11 10 7 7 12 12 11 10 11 13 14 16 16 16 15 14 14 13 14 15 11 8 13 13
11 10 9 11 13 11 8 8 6 6 3 10 11 10 10 10 10 10 9 9 9 7 7 9 9 9 9 9 11 13 15 15 15 12 9 13 12 13 13 12 10 12 12
11 10 12 10 11 10 8 7 7 5 3 10 11 9 9 9 9 9 10 10 7 7 8 9 7 7 6 8 11 12 14 13 13 10 4 7 10 10 11 11 10 12 10
10 10 11 9 10 7 6 6 6 4 5 7 7 10 12 8 7 8 7 6 7 6 7 7 6 9 11 12 12 12 13 12 9 1 6 6 7 9 9 10 8 10 9
10 10 10 9 8 8 7 6 6 5 4 4 5 9 11 10 9 10 8 6 6 6 3 5 5 8 10 8 13 12 12 11 5 3 6 5 6 8 9 7 6 8 6
10 9 11 9 10 9 8 7 6 6 4 4 7 5 10 11 9 7 7 6 4 6 5 3 3 6 7 6 11 11 11 9 5 5 6 5 6 7 7 6 6 5 5
10 9 10 8 9 10 10 8 6 6 4 1 1 5 10 10 9 5 6 6 5 4 4 3 2 2 3 4 8 8 8 5 1 4 4 4 6 4 6 4 5 4 4
10 9 8 8 8 8 8 9 8 7 6 4 6 6 6 9 11 8 6 5 5 5 4 3 2 1 1 2 4 7 6 4 4 2 2 2 7 4 4 4 3 3 3
7 8 8 9 9 7 8 7 7 7 8 8 8 3 7 12 10 8 7 7 8 7 6 5 4 3 2 1 2 5 5 4 4 1 0 1 4 5 5 3 4 4 4
6 8 8 8 8 9 9 7 7 7 7 8 9 5 2 7 5 6 5 4 7 9 8 7 6 5 4 2 1 2 5 5 6 4 3 1 4 4 7 5 4 5 5
6 7 8 8 9 8 8 8 8 7 6 6 6 7 7 7 8 8 6 3 9 9 11 8 7 6 4 3 3 1 6 6 5 4 3 6 7 7 7 8 8 8 8
10 9 9 10 10 9 7 8 10 9 8 9 9 10 9 9 8 6 4 5 6 8 10 11 10 7 6 6 5 5 6 5 5 5 5 6 9 10 9 11 12 12 10
11 9 11 11 11 11 8 7 5 5 6 7 11 10 9 7 7 7 6 6 8 7 6 8 7 8 8 6 6 6 7 6 5 5 6 7 11 12 12 12 14 14 14
10 11 12 13 11 11 8 8 8 7 7 7 9 11 8 7 8 8 7 8 7 7 9 8 6 9 10 9 9 9 9 7 5 5 6 9 12 14 14 13 12 16 16
13 13 13 13 13 12 12 9 9 9 9 9 9 11 9 9 8 8 8 8 8 8 8 9 9 8 9 10 10 10 10 11 11 7 6 9 12 15 16 16 15 15 19
13 14 13 15 15 14 12 13 10 9 10 10 10 10 13 10 9 9 9 9 9 9 9 9 9 9 8 9 10 11 11 11 12 11 9 8 12 15 18 18 18 18 17
12 12 14 15 16 17 16 14 11 10 10 10 10 13 13 13 12 11 9 9 9 9 11 9 10 10 9 10 12 11 11 13 12 13 11 10 9 15 17 20 21 20 20
14 14 13 12 15 18 17 13 11 11 10 9 9 10 14 15 14 12 10 10 10 9 9 10 9 9 9 10 10 10 10 11 14 15 13 11 10 10 12 20 22 23 22
16 16 15 13 16 16 15 13 14 14 12 10 10 10 13 14 15 13 11 11 11 9 10 10 10 11 10 10 11 11 11 11 13 12 15 15 15 13 10 13 19 21 22
13 13 14 12 15 13 11 11 10 9 11 10 9 9 14 12 15 13 12 12 11 10 10 10 11 9 9 8 9 11 11 11 12 11 14 14 15 15 14 15 11 13 22
13 13 14 14 14 11 10 10 10 11 8 9 9 12 15 14 14 13 11 11 11 12 12 11 10 13 10 10 7 9 11 14 14 13 13 13 15 15 16 14 11 10 10
14 14 14 13 13 11 10 8 8 7 9 9 9 11 12 14 14 13 13 12 13 10 14 14 12 9 9 7 5 5 4 7 9 12 11 12 16 12 13 13 13 16 14
11 11 11 11 11 10 11 8 7 7 6 6 7 7 9 11 13 12 14 12 11 10 10 13 13 12 9 8 12 6 3 6 5 3 10 9 11 9 11 13 15 16 15
12 11 11 8 7 6 8 8 10 7 7 5 5 5 6 9 11 12 12 12 11 9 11 11 8 10 10 9 4 9 13 9 4 6 3 6 8 11 13 10 12 14 16
11 11 11 11 12 11 4 5 5 6 4 4 4 6 6 6 7 8 8 9 8 7 9 10 9 10 9 9 9 5 8 10 11 8 10 7 7 10 11 12 12 11 12
11 12 12 14 15 14 13 13 11 9 5 5 6 4 4 3 3 5 7 8 9 8 9 9 10 11 9 10 9 10 9 6 5 8 10 10 12 12 11 11 12 12 11
Wind_Direction
154 140 155 150 147 139 134 132 141 139 141 126 113 109 107 108 104 104 95 85 82 93 105 87 76 68 66 81 78 79 78 75 75 72 69 67 70 77 80 67 78 79 76
147 152 155 147 146 132 136 136 148 163 190 147 124 110 109 110 114 117 112 111 112 109 105 98 79 68 69 95 92 87 85 81 77 75 80 90 72 76 82 77 65 79 78
147 149 162 149 134 132 134 141 146 176 150 122 127 130 124 121 131 133 124 115 116 131 124 105 89 63 50 124 104 93 88 84 80 77 21 68 74 71 77 79 76 84 81
150 152 152 135 119 124 138 143 153 156 147 152 172 157 133 135 141 137 128 133 118 113 122 110 83 65 40 132 113 102 95 90 85 58 57 64 80 80 81 74 79 76 85
153 154 133 133 125 145 148 155 159 150 186 195 160 159 146 145 157 143 151 140 139 133 138 114 74 49 44 114 119 113 107 104 117 88 66 72 99 87 80 70 102 81 73
153 159 134 143 150 155 153 156 167 148 196 310 174 154 163 150 163 159 166 152 137 135 147 150 74 41 44 54 120 120 120 123 207 63 73 95 76 100 98 106 103 69 101
163 166 160 158 161 161 161 163 191 168 193 185 278 192 176 157 158 175 164 174 169 162 156 153 172 86 62 59 134 135 135 152 6 68 85 90 95 103 113 108 113 129 108
175 173 166 167 168 167 173 169 170 170 175 207 269 310 202 174 163 182 205 188 204 170 176 188 214 218 136 85 121 138 148 204 217 83 84 112 111 131 127 130 155 152 115
189 186 184 184 181 176 180 182 188 182 182 205 210 242 166 184 182 179 219 205 186 182 201 201 216 241 228 149 140 156 165 211 273 341 354 188 152 160 152 163 166 175 179
201 215 202 199 196 196 188 192 195 204 211 210 198 214 112 174 183 189 188 216 229 205 207 214 217 228 241 229 92 189 173 205 249 235 234 99 193 230 166 186 198 201 197
217 219 224 215 213 210 207 189 201 208 208 193 189 193 206 200 193 181 213 258 233 213 204 215 229 237 253 261 270 241 218 241 245 246 251 143 222 227 204 207 210 206 208
224 221 223 227 221 220 216 214 214 208 214 210 207 204 215 223 225 227 221 208 262 286 222 210 214 224 236 254 225 220 241 252 251 256 255 179 231 241 247 216 207 206 209
228 224 226 225 229 222 221 220 216 216 215 216 217 214 219 218 217 218 231 224 229 212 220 227 225 236 250 258 251 251 248 247 249 247 250 214 236 243 248 245 218 214 207
242 238 228 228 227 230 226 218 224 220 218 219 218 217 217 217 220 225 225 230 229 230 231 236 246 256 259 254 257 257 252 255 257 252 249 208 236 241 248 250 250 224 218
252 244 237 224 227 227 228 229 227 225 220 227 226 220 219 222 224 225 226 228 229 230 233 238 244 254 257 256 258 254 254 254 257 259 260 199 230 241 243 248 249 250 227
258 254 245 234 224 222 221 225 225 227 231 226 229 227 221 229 231 229 230 229 231 231 233 234 238 243 247 252 256 257 258 258 256 256 258 252 220 237 243 245 247 248 251
270 267 252 241 231 224 222 225 226 224 222 229 230 229 226 223 230 235 237 234 232 232 235 241 242 242 249 250 251 257 257 254 254 255 252 250 245 221 237 242 244 246 245
271 263 259 241 236 230 227 222 223 225 221 213 223 235 228 227 225 228 235 238 239 235 230 229 230 234 240 246 254 255 253 251 252 254 254 252 245 248 221 234 238 241 242
283 284 270 250 241 234 232 230 227 224 225 219 215 226 233 228 227 228 230 234 234 240 243 242 236 230 232 237 245 252 252 253 253 252 252 250 247 241 241 229 224 231 234
282 280 278 270 252 242 232 231 232 231 230 224 217 216 230 227 228 228 236 237 235 236 242 242 251 248 247 259 259 254 251 251 249 248 253 249 246 245 239 238 230 231 232
303 293 281 270 259 238 222 224 225 223 229 233 229 229 233 232 230 228 234 241 235 239 241 240 242 249 247 244 259 261 257 248 247 246 249 248 249 241 241 239 234 238 226
313 302 295 281 271 248 235 227 233 228 231 224 219 229 231 241 237 236 234 237 232 235 242 241 229 236 249 237 224 257 275 248 231 238 238 244 248 247 247 240 240 240 238
343 328 309 295 279 256 233 228 227 235 248 239 235 239 235 235 237 236 240 242 245 241 241 243 240 228 234 230 218 232 251 247 282 203 231 239 242 242 242 240 238 241 241
6 1 6 353 325 277 244 231 225 228 248 264 267 258 255 234 239 239 239 243 242 248 247 255 250 236 236 242 216 227 239 259 260 280 218 229 241 244 237 232 236 235 236
24 25 33 44 43 26 10 241 238 239 265 302 310 307 297 284 253 252 249 252 249 248 249 251 247 238 234 240 236 221 233 246 252 254 274 250 232 238 243 247 243 229 223
38 38 39 50 52 48 49 48 49 51 49 49 29 9 346 329 306 293 268 248 248 247 247 249 250 249 242 238 244 243 234 226 221 234 248 251 249 252 250 250 241 242 240